Location: Cargill Incorporated Elevator
(42.7294°N, 93.7333°W)
Time: 05:26:06
(UTC+00:00)

Cosmos 1140 Rocket - Pass Details

Date: 19 January 2026
Orbit: 739 x 763 km, 74.1° (Epoch: 15 February)

Event Time Altitude Azimuth Distance (km) Brightness Sun altitude
Exits shadow 12:09:16 15° 235° (SW) 1,936 5.2 -16.5°
Maximum altitude 12:13:04 37° 297° (WNW) 1,149 3.9 -15.8°
Drops below altitude 10° 12:17:49 10° 5° (N) 2,269 5.9 -15.0°
Sets 12:20:21 0° 14° (NNE) 3,200 6.7 -14.5°
